Date_and_time,latitude,longitude,wind_speed,RelWindDirFrom,WindDirFrom,air_pressure,air_temperature,relative_humidity,Temp,platform_speed_wrt_ground,air_pressure_at_mean_sea_level,platform_orientation
2019-05-10 23:50,50.6304416666667,-96.9807933333333,7.5,11.9,108,983.87,7.5,48,5.88,0.0,1010.90,192.6
2019-05-11 00:00,50.6304383333333,-96.9807933333333,5.2,10.4,111,983.79,7.1,51,5.90,0.0,1010.83,360.0
2019-05-11 00:10,50.6304333333333,-96.9807816666667,6.9,8.7,108,983.66,7.2,55,5.95,0.0,1010.69,360.0
2019-05-11 00:20,50.6304383333333,-96.9807833333333,3.5,6.1,137,983.60,6.0,62,5.93,0.0,1010.65,360.0
2019-05-11 00:30,50.63045,-96.98081,5.9,8.6,145,983.56,7.1,52,5.87,0.0,1010.58,360.0
2019-05-11 00:40,50.6304366666667,-96.9807816666667,10.0,13.9,143,983.40,8.5,47,5.85,0.0,1010.35,360.0
2019-05-11 00:50,50.6304333333333,-96.980775,10.7,12.2,149,983.35,9.7,50,5.92,0.0,1010.24,360.0
2019-05-11 01:00,50.6304233333333,-96.9807833333333,9.4,11.0,151,983.33,9.1,53,5.95,0.0,1010.23,228.3
2019-05-11 01:10,NA,NA,8.8,12.0,148,983.29,8.4,55,6.03,NA,984.01,NA
2019-05-11 01:20,NA,NA,9.0,10.1,142,983.28,7.3,59,6.07,NA,984.00,NA
2019-05-11 01:30,NA,NA,8.1,9.1,145,983.24,8.3,55,6.08,NA,983.96,NA
2019-05-11 01:40,NA,NA,7.5,10.6,137,983.23,8.6,54,6.11,NA,983.94,NA
2019-05-11 01:50,NA,NA,8.9,10.9,131,983.17,9.8,46,6.14,NA,983.88,NA
2019-05-11 02:00,NA,NA,9.1,11.0,132,983.14,9.2,54,6.25,NA,983.86,NA
2019-05-11 02:10,50.6304366666667,-96.9807766666667,6.8,9.3,147,983.17,6.6,64,6.32,0.0,1010.26,0.0
2019-05-11 02:20,50.6304316666667,-96.98078,7.8,9.1,153,983.19,6.6,69,6.47,0.0,1010.23,0.0
2019-05-11 02:30,50.6303966666667,-96.9808016666667,8.5,10.3,156,983.14,7.7,66,6.22,0.0,1010.06,0.0
2019-05-11 02:40,50.6304383333333,-96.9807416666667,7.7,9.8,130,983.11,7.9,65,6.10,0.0,1009.97,0.0
2019-05-11 02:50,50.63046,-96.9807666666667,8.7,9.7,116,983.06,6.0,77,6.31,0.0,1010.03,0.0
2019-05-11 03:00,50.6304433333333,-96.9807583333333,10.3,11.0,119,983.01,5.8,84,6.41,0.0,1010.02,213.4
2019-05-11 03:10,NA,NA,10.6,12.0,118,982.94,5.9,84,6.44,NA,983.66,NA
2019-05-11 03:20,NA,NA,11.3,12.0,110,982.77,5.9,83,6.04,NA,983.49,NA
2019-05-11 03:30,NA,NA,10.2,11.4,105,982.70,5.1,89,5.69,NA,983.42,NA
2019-05-11 03:40,NA,NA,11.5,12.6,115,982.66,5.1,86,5.57,NA,983.37,NA
2019-05-11 03:50,NA,NA,11.0,11.9,100,982.55,5.5,82,5.45,NA,983.26,NA
2019-05-11 04:00,NA,NA,11.6,13.1,107,982.47,5.4,79,5.36,NA,983.19,NA
2019-05-11 04:10,NA,NA,12.3,13.9,105,982.41,5.5,73,5.30,NA,983.13,NA
2019-05-11 04:20,NA,NA,13.2,15.1,99,982.43,5.7,69,5.33,NA,983.15,NA
2019-05-11 04:30,NA,NA,13.0,14.9,97,982.49,5.7,70,5.41,NA,983.20,NA
2019-05-11 04:40,NA,NA,11.5,13.1,100,982.53,4.9,75,5.47,NA,983.25,NA
2019-05-11 04:50,NA,NA,12.5,15.1,102,982.52,4.8,72,5.51,NA,983.24,NA
2019-05-11 05:00,NA,NA,15.2,18.4,98,982.39,5.6,64,5.48,NA,983.12,NA
2019-05-11 05:10,NA,NA,16.4,17.9,94,982.13,6.1,61,5.43,NA,982.85,NA
2019-05-11 05:20,NA,NA,15.7,18.8,90,981.83,5.9,61,5.32,NA,982.55,NA
2019-05-11 05:30,NA,NA,15.2,18.0,91,981.77,5.7,62,5.27,NA,982.49,NA
2019-05-11 05:40,NA,NA,12.8,14.9,86,981.60,5.6,63,5.23,NA,982.33,NA
2019-05-11 05:50,NA,NA,12.8,15.3,90,981.56,5.5,64,5.21,NA,982.29,NA
2019-05-11 06:00,NA,NA,12.3,15.3,95,981.45,5.0,69,5.25,NA,982.18,NA
2019-05-11 06:10,NA,NA,13.3,16.8,102,981.40,5.0,69,5.28,NA,982.13,NA
2019-05-11 06:20,NA,NA,14.8,17.2,101,981.27,5.6,66,5.28,NA,982.00,NA
2019-05-11 06:30,NA,NA,16.1,18.7,95,981.12,5.7,66,5.31,NA,981.84,NA
2019-05-11 06:40,NA,NA,14.4,17.4,100,981.14,5.6,68,5.31,NA,981.87,NA
2019-05-11 07:10,NA,NA,13.7,21.1,116,980.99,6.5,63,5.15,NA,981.70,NA
2019-05-11 07:20,NA,NA,15.4,21.2,110,980.77,6.5,66,5.04,NA,981.49,NA
2019-05-11 07:30,NA,NA,15.3,20.0,105,980.69,6.3,67,5.01,NA,981.41,NA
2019-05-11 07:40,NA,NA,13.3,15.5,111,980.79,5.8,70,4.96,NA,981.51,NA
2019-05-11 07:50,NA,NA,12.5,16.6,106,980.60,5.7,72,4.80,NA,981.32,NA
2019-05-11 08:00,NA,NA,14.3,16.3,98,980.35,6.0,70,4.73,NA,981.07,NA
2019-05-11 08:10,NA,NA,14.4,17.7,107,980.21,5.9,70,4.72,NA,980.93,NA
2019-05-11 08:20,NA,NA,16.6,22.2,107,980.05,5.7,70,4.72,NA,980.77,NA
2019-05-11 08:30,NA,NA,16.4,20.0,109,980.03,5.7,71,4.78,NA,980.75,NA
2019-05-11 08:40,NA,NA,15.5,17.9,112,980.00,5.7,71,4.79,NA,980.73,NA
2019-05-11 08:50,NA,NA,14.6,18.1,114,979.96,5.3,74,4.81,NA,980.68,NA
2019-05-11 09:00,NA,NA,15.1,17.9,113,979.93,5.5,73,4.79,NA,980.65,NA
2019-05-11 09:10,NA,NA,14.6,16.8,112,979.91,5.6,73,4.77,NA,980.63,NA
2019-05-11 09:20,NA,NA,15.4,17.4,109,979.83,5.6,73,4.74,NA,980.55,NA
2019-05-11 09:30,NA,NA,15.6,17.7,108,979.74,5.6,73,4.77,NA,980.46,NA
2019-05-11 09:40,NA,NA,15.4,17.8,106,979.74,5.7,72,4.82,NA,980.46,NA
2019-05-11 09:50,NA,NA,13.1,15.5,106,979.77,5.5,74,4.82,NA,980.49,NA
2019-05-11 10:00,NA,NA,14.8,17.2,107,979.66,5.4,74,4.80,NA,980.38,NA
2019-05-11 10:10,NA,NA,13.3,15.3,108,979.64,5.3,75,4.85,NA,980.36,NA
2019-05-11 10:20,NA,NA,14.3,16.1,109,979.55,5.3,74,4.90,NA,980.27,NA
2019-05-11 10:30,NA,NA,13.6,16.3,118,979.56,5.4,76,4.93,NA,980.28,NA
2019-05-11 10:40,NA,NA,14.6,16.4,123,979.50,5.8,75,4.93,NA,980.22,NA
2019-05-11 10:50,NA,NA,15.9,17.8,122,979.46,5.9,74,4.92,NA,980.18,NA
2019-05-11 11:00,NA,NA,14.6,16.8,125,979.49,5.5,76,4.91,NA,980.21,NA
2019-05-11 11:10,NA,NA,13.1,14.8,128,979.52,5.2,79,4.80,NA,980.25,NA
2019-05-11 11:20,NA,NA,12.8,14.3,134,979.53,5.0,80,4.70,NA,980.25,NA
2019-05-11 11:30,NA,NA,13.2,14.5,146,979.55,4.9,82,4.72,NA,980.27,NA
2019-05-11 11:40,NA,NA,12.1,13.7,169,979.60,4.9,83,4.69,NA,980.32,NA
2019-05-11 11:50,NA,NA,9.9,11.5,200,979.69,4.5,87,4.69,NA,980.42,NA
2019-05-11 12:00,NA,NA,9.2,10.3,230,979.76,4.4,90,4.61,NA,980.48,NA
2019-05-11 12:10,NA,NA,10.1,10.8,253,979.80,4.9,86,4.59,NA,980.52,NA
2019-05-11 12:20,NA,NA,9.1,10.6,268,979.81,4.7,91,4.59,NA,980.54,NA
2019-05-11 12:30,NA,NA,7.0,8.7,285,979.90,4.9,88,4.82,NA,980.62,NA
2019-05-11 12:40,NA,NA,7.3,8.5,280,979.95,5.6,86,4.87,NA,980.67,NA
2019-05-11 12:50,NA,NA,7.2,8.3,300,979.89,6.6,75,4.68,NA,980.61,NA
2019-05-11 13:00,NA,NA,9.1,10.5,310,979.87,7.5,70,4.59,NA,980.59,NA
2019-05-11 13:10,NA,NA,9.9,11.4,317,979.86,8.1,64,4.71,NA,980.58,NA
2019-05-11 13:20,NA,NA,9.6,13.4,321,979.94,8.4,62,4.88,NA,980.66,NA
2019-05-11 13:30,NA,NA,12.2,18.7,348,979.98,9.4,54,4.94,NA,980.70,NA
2019-05-11 13:50,NA,NA,11.1,13.8,347,980.04,10.2,51,5.09,NA,980.75,NA
2019-05-11 14:00,NA,NA,8.3,11.7,332,980.05,10.3,52,4.97,NA,980.76,NA
2019-05-11 14:10,NA,NA,5.6,8.3,277,980.04,8.4,67,4.61,NA,980.75,NA
2019-05-11 14:20,NA,NA,5.1,6.4,262,979.95,7.2,73,4.26,NA,980.67,NA
2019-05-11 14:30,NA,NA,5.7,9.6,278,979.95,5.8,79,3.97,NA,980.67,NA
2019-05-11 14:40,NA,NA,11.0,14.1,310,979.98,6.6,74,3.87,NA,980.70,NA
2019-05-11 14:50,NA,NA,10.9,13.3,322,980.10,7.5,73,4.20,NA,980.82,NA
2019-05-11 15:00,NA,NA,8.6,12.5,327,980.20,7.5,71,4.87,NA,980.91,NA
2019-05-11 15:10,NA,NA,10.3,12.8,333,980.08,9.7,54,5.38,NA,980.79,NA
2019-05-11 15:20,NA,NA,10.5,13.3,316,980.07,9.5,58,5.35,NA,980.78,NA
2019-05-11 15:30,NA,NA,10.7,14.1,307,980.06,10.5,53,5.19,NA,980.77,NA
2019-05-11 15:40,NA,NA,8.8,11.0,288,980.13,11.2,54,4.51,NA,980.84,NA
2019-05-11 15:50,NA,NA,9.3,10.5,284,980.16,10.1,60,4.41,NA,980.87,NA
2019-05-11 16:00,NA,NA,8.7,10.2,285,980.16,8.1,70,4.48,NA,980.87,NA
2019-05-11 16:10,NA,NA,10.7,11.6,287,980.14,7.2,74,4.07,NA,980.85,NA
2019-05-11 16:20,NA,NA,10.3,12.0,290,980.10,8.0,71,3.84,NA,980.82,NA
2019-05-11 16:30,NA,NA,10.4,11.8,292,980.12,8.3,70,3.85,NA,980.84,NA
2019-05-11 16:40,NA,NA,10.9,12.6,294,980.12,8.9,68,3.55,NA,980.83,NA
2019-05-11 16:50,NA,NA,9.7,10.8,291,980.14,8.4,70,3.50,NA,980.85,NA
2019-05-11 17:00,NA,NA,10.0,11.0,288,980.10,8.5,68,3.55,NA,980.81,NA
2019-05-11 17:10,NA,NA,11.4,13.0,288,980.01,8.7,65,3.63,NA,980.72,NA
2019-05-11 17:20,NA,NA,12.1,14.1,288,979.98,9.0,65,3.69,NA,980.69,NA
2019-05-11 17:30,NA,NA,12.2,13.1,292,979.96,9.5,61,3.74,NA,980.67,NA
2019-05-11 17:40,NA,NA,11.2,12.3,288,979.92,11.0,55,3.78,NA,980.63,NA
2019-05-11 17:50,NA,NA,10.3,11.5,286,979.86,10.3,57,3.80,NA,980.57,NA
2019-05-11 18:00,NA,NA,9.8,11.2,283,979.77,10.9,57,3.82,NA,980.48,NA
2019-05-11 18:10,NA,NA,10.3,11.7,276,979.69,9.6,61,3.85,NA,980.40,NA
2019-05-11 18:20,NA,NA,10.4,11.7,276,979.62,10.2,59,3.89,NA,980.33,NA
2019-05-11 18:30,NA,NA,9.3,10.1,272,979.56,10.0,60,3.95,NA,980.27,NA
2019-05-11 18:40,NA,NA,7.6,9.9,265,979.45,10.0,59,3.98,NA,980.16,NA
2019-05-11 18:50,NA,NA,6.4,10.4,268,979.37,10.1,59,3.99,NA,980.09,NA
2019-05-11 19:00,NA,NA,8.7,11.6,284,979.25,10.6,57,4.00,NA,979.96,NA
2019-05-11 19:10,NA,NA,8.3,15.5,324,979.16,12.8,44,4.03,NA,979.86,NA
2019-05-11 19:20,NA,NA,16.0,21.8,5,978.91,16.8,30,4.34,NA,979.61,NA
2019-05-11 19:30,NA,NA,12.3,16.8,5,978.92,17.6,30,5.08,NA,979.62,NA
2019-05-11 19:40,NA,NA,10.7,17.0,14,978.90,18.0,27,5.54,NA,979.59,NA
2019-05-11 19:50,NA,NA,12.1,18.0,18,978.82,18.5,27,5.69,NA,979.52,NA
2019-05-11 20:00,NA,NA,11.3,17.3,15,978.76,18.2,28,5.51,NA,979.46,NA
2019-05-11 20:10,NA,NA,8.3,14.5,19,978.77,18.1,28,5.29,NA,979.47,NA
2019-05-11 20:30,NA,NA,10.3,15.8,50,978.88,18.3,28,4.30,NA,979.57,NA
2019-05-11 20:40,NA,NA,12.0,25.6,78,978.82,16.9,38,5.07,NA,979.51,NA
2019-05-11 20:50,NA,NA,8.6,18.2,87,979.10,16.5,36,5.75,NA,979.80,NA
2019-05-11 21:00,NA,NA,9.9,17.1,60,978.97,16.4,37,6.32,NA,979.66,NA
2019-05-11 21:10,NA,NA,6.6,9.6,70,978.97,16.9,34,6.73,NA,979.66,NA
2019-05-11 21:20,NA,NA,20.4,30.4,360,979.17,15.8,39,6.78,NA,979.86,NA
2019-05-11 21:30,NA,NA,13.8,21.8,13,979.68,15.3,42,6.74,NA,980.37,NA
2019-05-11 21:40,NA,NA,11.5,15.2,21,979.80,15.5,42,6.55,NA,980.49,NA
2019-05-11 21:50,NA,NA,15.0,21.8,347,979.59,15.1,42,6.43,NA,980.28,NA
2019-05-11 22:00,NA,NA,15.8,22.5,348,979.26,14.2,44,6.32,NA,979.96,NA
2019-05-11 22:10,NA,NA,14.8,20.3,346,979.05,14.4,44,6.11,NA,979.75,NA
2019-05-11 22:20,NA,NA,8.2,11.4,354,979.20,14.3,46,5.91,NA,979.89,NA
2019-05-11 22:30,NA,NA,9.1,11.7,1,979.21,14.1,45,5.73,NA,979.90,NA
2019-05-11 22:40,NA,NA,10.0,15.4,359,979.37,15.2,40,5.39,NA,980.06,NA
2019-05-11 22:50,NA,NA,12.7,17.6,8,979.63,15.4,41,4.98,NA,980.32,NA
2019-05-11 23:00,NA,NA,12.6,21.4,28,979.77,15.4,42,4.22,NA,980.47,NA
2019-05-11 23:10,NA,NA,11.5,16.0,43,979.81,15.2,48,3.80,NA,980.51,NA
2019-05-11 23:20,NA,NA,8.7,12.2,54,979.66,14.9,50,3.83,NA,980.36,NA
2019-05-11 23:30,NA,NA,7.2,13.7,65,979.51,14.7,52,3.81,NA,980.20,NA
